CST,Max TemperatureF,Mean TemperatureF,Min TemperatureF,Max Dew PointF,MeanDew PointF,Min DewpointF,Max Humidity, Mean Humidity, Min Humidity, Max Sea Level PressureIn, Mean Sea Level PressureIn, Min Sea Level PressureIn, Max VisibilityMiles, Mean VisibilityMiles, Min VisibilityMiles, Max Wind SpeedMPH, Mean Wind SpeedMPH, Max Gust SpeedMPH,PrecipitationIn, CloudCover, Events, WindDirDegrees
2012-11-1,33,27,21,25,22,19,96,81,66,30.22,30.14,30.05,10,10,10,17,10,22,0.00,5,,61
2012-11-2,30,29,27,28,26,22,100,91,81,30.17,30.10,30.04,10,3,0,15,8,17,0.17,8,Fog-Snow,104
2012-11-3,29,28,26,28,26,24,92,89,85,30.31,30.22,30.10,10,6,2,12,5,13,0.01,8,Snow,329
2012-11-4,33,31,28,34,29,24,100,93,85,30.27,30.17,30.08,10,4,0,13,6,17,0.07,8,Fog-Snow,144
2012-11-5,48,41,33,43,34,30,100,85,70,30.26,30.01,29.72,10,6,2,30,12,39,0.05,7,Rain,212
2012-11-6,49,40,30,32,29,27,85,68,50,30.12,30.04,29.91,10,10,10,28,17,39,0.00,1,,274
2012-11-7,51,40,28,38,31,26,92,71,50,30.09,29.85,29.69,10,10,10,23,9,32,0.00,2,,161
2012-11-8,50,39,27,41,28,21,89,75,61,30.27,30.07,29.77,10,10,8,32,15,40,0.02,8,,347
2012-11-9,27,23,19,21,18,13,91,80,68,30.27,30.14,29.95,10,9,1,23,16,29,0.03,8,Snow,57
2012-11-10,22,20,17,20,17,13,92,86,80,30.01,29.83,29.75,10,3,0,22,14,25,0.22,8,Fog-Snow,334
2012-11-11,17,13,9,13,9,1,88,81,73,30.04,29.84,29.72,10,4,0,33,23,40,0.01,8,Fog-Snow,279
2012-11-12,20,13,5,13,5,-4,88,76,63,30.20,30.13,29.93,10,9,2,30,13,35,T,2,Snow,247
2012-11-13,28,22,15,21,16,12,92,81,69,30.24,30.19,30.11,10,6,0,7,2,8,0.00,2,Fog,144
2012-11-14,40,26,12,29,20,9,96,80,64,30.18,30.07,29.99,10,7,1,16,7,21,0.00,1,,208
2012-11-15,33,25,16,24,20,14,92,75,58,30.46,30.35,30.16,10,10,10,24,10,31,0.00,0,,205
2012-11-16,39,33,26,30,26,20,92,77,61,30.27,30.08,30.00,10,10,8,24,11,32,0.00,0,,171
2012-11-17,39,32,25,29,27,23,100,85,70,30.11,30.06,30.02,10,8,3,9,3,12,0.00,2,,146
2012-11-18,45,34,22,36,28,20,100,85,70,30.00,29.91,29.81,10,6,1,13,4,16,0.00,0,,138
2012-11-19,44,37,29,31,29,25,89,73,57,30.15,30.08,29.94,10,10,10,20,8,23,0.00,0,,212
2012-11-20,49,43,36,34,31,26,73,64,55,30.03,29.91,29.83,10,10,10,21,11,28,0.00,0,,197
2012-11-21,52,41,30,38,32,29,100,78,56,29.86,29.72,29.60,10,8,1,22,6,26,0.00,3,,321
2012-11-22,33,25,17,31,21,6,100,89,77,30.53,30.03,29.65,10,5,1,25,14,31,T,7,Snow,311
2012-11-23,16,11,5,11,5,2,88,78,67,30.61,30.51,30.24,10,10,10,22,9,28,0.00,2,,307
2012-11-24,38,28,17,32,20,12,92,80,68,30.19,29.95,29.79,10,10,9,30,16,36,0.01,6,,249
2012-11-25,28,16,3,22,10,-2,88,73,58,30.42,30.14,29.90,10,9,4,30,14,35,T,4,Snow,294
2012-11-26,33,18,2,23,12,-3,88,75,61,30.45,30.29,30.09,10,10,8,24,10,30,T,4,Snow,237
2012-11-27,27,23,19,22,20,17,96,89,81,30.28,30.19,30.06,10,10,7,16,9,20,0.00,7,,267
2012-11-28,39,28,16,22,19,12,100,74,48,30.27,30.14,30.04,10,9,2,17,10,21,0.00,5,,205
2012-11-29,19,14,9,12,6,1,92,79,66,30.24,30.18,30.11,10,10,10,17,11,22,0.00,7,,81
2012-11-30,33,25,16,27,20,12,100,85,69,30.18,29.93,29.69,10,8,2,18,10,22,0.00,5,,133